This is the latest recevied weather packets stored in our database for station/object K0WOI. If no packets are shown the sender has not sent any weather packets the latest 10 day(s).
| Time | Temp. | Humidity | Pressure | Rain* | Wind** | Luminosity | Snow |
|---|---|---|---|---|---|---|---|
| 1777857483 | 20° C | 30% | 1006.6 hPa | 0 mm | - | 0 W/m² | - |
| 1777857179 | 20° C | 29% | 1006.7 hPa | 0 mm | - | 2 W/m² | - |
| 1777856874 | 20.56° C | 29% | 1006.6 hPa | 0 mm | - | 5 W/m² | - |
| 1777856570 | 20.56° C | 28% | 1006.8 hPa | 0 mm | - | 7 W/m² | - |
| 1777856267 | 21.11° C | 28% | 1006.7 hPa | 0 mm | - | 9 W/m² | - |
| 1777855964 | 21.11° C | 27% | 1006.7 hPa | 0 mm | - | 12 W/m² | - |
| 1777855662 | 21.11° C | 27% | 1006.7 hPa | 0 mm | - | 15 W/m² | - |
| 1777855359 | 21.67° C | 27% | 1006.8 hPa | 0 mm | - | 16 W/m² | - |
| 1777855055 | 21.67° C | 25% | 1006.7 hPa | 0 mm | - | 19 W/m² | - |
| 1777854752 | 21.67° C | 25% | 1006.9 hPa | 0 mm | - | 19 W/m² | - |
| 1777854449 | 22.22° C | 25% | 1006.7 hPa | 0 mm | - | 19 W/m² | - |
| 1777854145 | 22.22° C | 25% | 1006.8 hPa | 0 mm | - | 24 W/m² | - |
| 1777853843 | 22.22° C | 25% | 1006.8 hPa | 0 mm | - | 28 W/m² | - |
| 1777853540 | 22.78° C | 23% | 1006.7 hPa | 0 mm | - | 30 W/m² | - |
| 1777853237 | 22.22° C | 23% | 1006.8 hPa | 0 mm | - | 32 W/m² | - |
| 1777852934 | 22.78° C | 24% | 1006.8 hPa | 0 mm | - | 35 W/m² | - |
| 1777852632 | 22.78° C | 25% | 1006.8 hPa | 0 mm | - | 41 W/m² | - |
| 1777852329 | 23.33° C | 25% | 1006.8 hPa | 0 mm | - | 37 W/m² | - |
| 1777852026 | 23.89° C | 23% | 1006.6 hPa | 0 mm | - | 39 W/m² | - |
| 1777851725 | 23.89° C | 25% | 1006.8 hPa | 0 mm | - | 41 W/m² | - |
| 1777851421 | 23.33° C | 24% | 1007 hPa | 0 mm | - | 41 W/m² | - |
| 1777851117 | 23.33° C | 24% | 1006.7 hPa | 0 mm | - | 46 W/m² | - |
| 1777850814 | 23.89° C | 23% | 1007 hPa | 0 mm | - | 51 W/m² | - |
| 1777850512 | 23.33° C | 26% | 1006.8 hPa | 0 mm | - | 46 W/m² | - |
| 1777850210 | 23.33° C | 23% | 1007 hPa | 0 mm | - | 48 W/m² | - |
* Rain latest hour (hover to see other rain measurements)
** Current wind speed in m/s (hover to see current wind gust speed)